Location: Cortos
(40.7190°N, 4.5893°W)
Time: 19:48:14
(UTC+00:00)

Cosmos 1933 - Pass Details

Date: 05 July 2020
Orbit: 547 x 563 km, 82.5° (Epoch: 05 August)

Event Time Altitude Azimuth Distance (km) Brightness Sun altitude
Rises 23:32:49 0° 359° (N) 2,727 8.1 -25.5°
Reaches altitude 10° 23:35:05 10° 7° (N) 1,830 6.9 -25.6°
Enters shadow 23:38:07 37° 48° (NE) 870 4.5 -25.8°
